Weather reports worldwide

Advertisment
Dieppe, France (7040): temperature & dewpoint: 13.03.2019 09:00:00 - 19.03.2019 09:00:00 (CET)Dieppe, France (7040): temperature 5cm: 13.03.2019 09:00:00 - 19.03.2019 09:00:00 (CET)Dieppe, France (7040): wind speed & gusts: 13.03.2019 09:00:00 - 19.03.2019 09:00:00 (CET)Dieppe, France (7040): wind direction: 13.03.2019 09:00:00 - 19.03.2019 09:00:00 (CET)Dieppe, France (7040): reduced air pressure: 13.03.2019 09:00:00 - 19.03.2019 09:00:00 (CET)Dieppe, France (7040): visibility: 13.03.2019 09:00:00 - 19.03.2019 09:00:00 (CET)Dieppe, France (7040): precipitation: 13.03.2019 09:00:00 - 19.03.2019 09:00:00 (CET)
Date & Time tt [°C] td [°C] tt 5cm [°C] ff [km/h] ff [kn] fx [km/h] fx [kn] dd ppp [hPa] vv [km] rr [mm]
19.03.2019 09:00:00 5,7 4,8 3,8 11 6 19 10 SSE 1028,1 - 0,0
19.03.2019 08:00:00 3,6 2,9 2,4 14 7 18 10 S 1027,8 - 0,0
19.03.2019 07:00:00 2,6 1,9 2,0 13 7 17 9 S 1027,4 11 0,0
19.03.2019 06:00:00 2,6 1,7 1,9 13 7 18 10 S 1027,1 - 0,0
19.03.2019 05:00:00 3,1 2,4 2,1 14 8 20 11 S 1026,6 - 0,0
19.03.2019 04:00:00 3,0 2,1 2,4 13 7 16 9 S 1026,2 14 0,0
19.03.2019 03:00:00 3,9 2,9 3,3 11 6 18 10 S 1026,1 - 0,0
19.03.2019 02:00:00 4,5 3,3 3,7 10 5 15 8 S 1026,1 - 0,0
19.03.2019 01:00:00 5,1 3,6 4,4 10 5 14 7 S 1025,9 - 0,0
19.03.2019 00:00:00 6,0 4,2 5,3 9 5 11 6 S 1025,8 - 0,0
18.03.2019 23:00:00 7,1 4,6 6,5 5 3 16 9 S 1025,5 - 0,0
18.03.2019 22:00:00 8,2 5,7 7,4 7 4 20 11 WNW 1025,1 - 0,0
18.03.2019 21:00:00 8,4 5,5 7,7 11 6 25 13 WNW 1024,7 - 0,0
18.03.2019 20:00:00 8,5 5,6 7,8 13 7 23 12 WNW 1024,2 - 0,0
18.03.2019 19:00:00 8,6 5,5 8,1 14 8 26 14 WNW 1023,8 14 0,0
18.03.2019 18:00:00 9,0 5,6 8,8 19 10 28 15 W 1023,3 - 0,0
18.03.2019 17:00:00 9,7 5,5 10,7 16 9 26 14 W 1022,9 - 0,0
18.03.2019 16:00:00 10,2 5,0 11,6 16 9 23 12 W 1022,6 - 0,0
18.03.2019 15:00:00 10,2 5,0 12,6 15 8 25 14 W 1022,7 - 0,0
18.03.2019 14:00:00 9,9 4,5 11,7 16 9 25 14 W 1022,7 - 0,0
18.03.2019 13:00:00 9,5 4,1 9,1 17 9 23 13 WNW 1022,9 - 0,0
18.03.2019 12:00:00 9,1 4,1 9,1 17 9 32 17 WNW 1022,7 - 0,0
18.03.2019 11:00:00 9,1 3,7 8,9 22 12 32 17 NW 1022,3 - 0,0
18.03.2019 10:00:00 8,6 3,6 7,9 22 12 36 19 NW 1021,7 - 0,0
18.03.2019 09:00:00 7,9 3,2 7,6 25 14 37 20 NW 1020,9 - 0,0
18.03.2019 08:00:00 7,8 3,5 7,1 26 14 37 20 NW 1020,1 - 0,0
18.03.2019 07:00:00 7,6 3,4 7,2 30 16 44 24 NW 1019,3 12 0,0
18.03.2019 06:00:00 8,0 3,6 7,7 33 18 48 26 NW 1018,8 - 0,0
18.03.2019 05:00:00 8,2 4,0 7,8 35 19 50 27 NW 1018,1 - 0,0
18.03.2019 04:00:00 8,3 3,9 7,8 33 18 44 24 NW 1017,5 10 0,0
18.03.2019 03:00:00 8,2 4,2 7,8 29 15 45 24 NW 1017,0 - 0,0
18.03.2019 02:00:00 8,4 4,4 8,0 28 15 49 27 NW 1016,4 - 0,0
18.03.2019 01:00:00 8,5 3,5 8,0 34 19 50 27 NW 1015,7 10 0,0
18.03.2019 00:00:00 8,6 4,2 8,0 34 18 56 30 WNW 1015,3 - 0,0
17.03.2019 23:00:00 8,6 4,6 8,2 35 19 57 31 WNW 1014,6 - 0,0
17.03.2019 22:00:00 8,7 3,5 6,7 32 17 56 31 W 1013,8 10 0,0
17.03.2019 21:00:00 8,5 4,9 7,0 29 16 50 27 W 1013,5 - 0,0
17.03.2019 20:00:00 7,5 3,5 6,7 25 13 46 25 WSW 1013,1 - 0,0
17.03.2019 19:00:00 7,6 3,3 7,0 27 15 53 29 WSW 1012,6 11 0,0
17.03.2019 18:00:00 8,6 3,4 8,6 30 16 58 31 WSW 1011,8 - 0,0
17.03.2019 17:00:00 9,0 2,3 8,8 32 17 58 31 W 1011,0 - 0,0
17.03.2019 16:00:00 8,9 2,2 8,8 34 19 56 30 W 1010,6 16 0,0
17.03.2019 15:00:00 7,6 3,8 5,6 29 15 64 34 W 1010,1 - 0,4
17.03.2019 14:00:00 7,6 3,1 7,0 31 17 53 28 W 1009,6 - 0,0
17.03.2019 13:00:00 8,3 2,3 8,3 33 18 53 29 W 1009,3 16 0,0
17.03.2019 12:00:00 7,9 3,0 7,8 31 17 60 33 WNW 1008,5 - 0,0
17.03.2019 11:00:00 7,8 3,8 5,0 33 18 56 31 W 1007,4 - 0,2
17.03.2019 10:00:00 7,4 2,9 6,9 26 14 66 35 WNW 1006,8 - 0,0
17.03.2019 09:00:00 8,5 3,9 7,8 31 17 55 30 W 1005,6 - 0,0
17.03.2019 08:00:00 8,1 4,9 6,7 29 16 55 30 W 1004,4 - 0,0
17.03.2019 07:00:00 8,2 4,8 6,2 35 19 55 30 W 1003,7 12 0,2
17.03.2019 06:00:00 8,4 5,0 7,1 31 17 51 28 W 1002,9 - 0,0
17.03.2019 05:00:00 8,6 5,9 7,1 31 17 57 31 W 1002,1 - 0,2
17.03.2019 04:00:00 8,2 6,8 6,6 24 13 54 29 W 1001,6 12 2,2
17.03.2019 03:00:00 8,6 6,9 7,6 31 17 59 32 WSW 1001,0 - 2,0
17.03.2019 02:00:00 9,4 7,3 8,1 28 15 59 32 SSW 1000,3 - 0,2
17.03.2019 01:00:00 10,5 5,9 10,0 29 16 59 32 SSW 1000,3 - 0,0
17.03.2019 00:00:00 10,6 4,9 10,3 31 17 63 34 SSW 1000,9 - 0,0
16.03.2019 23:00:00 10,8 4,7 10,2 31 17 63 34 SSW 1002,0 - 0,0
16.03.2019 22:00:00 10,9 4,6 10,4 29 16 60 32 SSW 1003,0 - 0,0
16.03.2019 21:00:00 11,3 4,5 10,8 34 18 61 33 SW 1004,0 - 0,0
16.03.2019 20:00:00 11,8 5,4 11,3 24 13 65 35 SW 1004,4 - 0,0
16.03.2019 19:00:00 12,8 5,9 12,2 23 12 50 27 SW 1004,6 - 0,0
16.03.2019 18:00:00 13,9 6,5 13,6 22 12 54 29 SW 1004,8 - 0,0
16.03.2019 17:00:00 14,8 6,6 14,4 26 14 52 28 SW 1005,5 - 0,0
16.03.2019 16:00:00 14,6 6,4 14,2 26 14 48 26 SW 1006,5 14 0,0
16.03.2019 15:00:00 14,2 6,3 15,4 28 15 52 28 SW 1007,8 - 0,0
16.03.2019 14:00:00 13,4 6,3 12,4 31 17 57 31 WSW 1009,3 - 0,0
16.03.2019 13:00:00 12,0 5,8 11,5 31 17 62 34 SW 1010,3 14 0,0
16.03.2019 12:00:00 11,3 5,6 11,0 32 17 66 35 SW 1010,9 - 0,0
16.03.2019 11:00:00 10,9 6,2 10,4 29 16 61 33 SW 1011,6 - 0,0
16.03.2019 10:00:00 10,3 6,6 10,0 30 16 53 29 SW 1012,1 - 0,0
16.03.2019 09:00:00 10,5 6,8 10,0 31 17 56 30 SW 1012,5 - 0,0
16.03.2019 08:00:00 10,4 6,7 9,2 29 16 58 31 SW 1012,7 - 0,0
16.03.2019 07:00:00 10,1 7,2 8,6 28 15 48 26 SW 1012,8 7 0,0
16.03.2019 06:00:00 10,0 7,6 9,2 28 15 49 26 SW 1013,6 - 0,0
16.03.2019 05:00:00 10,3 8,2 9,7 26 14 55 30 SW 1014,1 - 0,0
16.03.2019 04:00:00 10,6 8,0 10,0 31 17 55 30 WSW 1014,1 8 0,0
16.03.2019 03:00:00 10,7 7,9 9,8 33 18 61 33 WSW 1014,9 - 0,0
16.03.2019 02:00:00 10,6 8,7 9,8 32 18 55 30 WSW 1015,5 - 0,0
16.03.2019 01:00:00 10,9 8,6 10,5 31 17 62 34 WSW 1015,6 8 0,0
16.03.2019 00:00:00 11,0 8,9 10,3 34 19 66 36 WSW 1015,6 - 0,0
15.03.2019 23:00:00 11,2 8,9 10,0 37 20 75 40 WSW 1015,5 - 0,0
15.03.2019 22:00:00 11,1 9,0 10,6 42 23 77 41 WSW 1015,2 6 0,0
15.03.2019 21:00:00 11,0 9,3 10,4 44 24 74 40 WSW 1015,1 - 0,0
15.03.2019 20:00:00 11,2 9,3 10,7 45 24 82 45 WSW 1014,6 - 0,0
15.03.2019 19:00:00 11,5 9,2 11,1 48 26 82 44 WSW 1014,2 - 0,0
15.03.2019 18:00:00 11,5 9,2 10,9 49 27 84 45 WSW 1013,6 - 0,0
15.03.2019 17:00:00 11,4 9,6 10,4 48 26 88 48 WSW 1013,4 - 0,0
15.03.2019 16:00:00 11,3 9,9 10,5 50 27 93 50 WSW 1013,6 - 0,0
15.03.2019 15:00:00 11,8 9,9 11,1 49 26 85 46 WSW 1013,5 - 0,0
15.03.2019 14:00:00 11,8 9,7 11,6 54 29 104 56 WSW 1012,9 - 0,0
15.03.2019 13:00:00 11,7 9,8 10,4 50 27 84 46 WSW 1012,8 6 0,0
15.03.2019 12:00:00 11,2 10,1 10,4 47 26 87 47 WSW 1013,0 - 0,0
15.03.2019 11:00:00 11,3 9,9 10,8 45 25 80 43 WSW 1013,0 - 0,0
15.03.2019 10:00:00 11,3 9,2 10,5 48 26 80 43 WSW 1012,5 - 0,0
15.03.2019 09:00:00 11,2 9,3 10,6 50 27 85 46 WSW 1012,2 - 0,0
15.03.2019 08:00:00 10,9 8,8 10,4 51 27 98 53 WSW 1011,5 - 0,0
15.03.2019 07:00:00 10,9 9,3 10,4 52 28 90 49 WSW 1011,0 - 0,0
15.03.2019 06:00:00 11,1 9,4 10,6 58 31 93 50 WSW 1010,5 - 0,0
15.03.2019 05:00:00 11,1 9,2 9,8 54 29 98 53 WSW 1010,4 - 0,0
15.03.2019 04:00:00 10,7 9,5 9,9 53 29 83 45 WSW 1010,6 6 0,0
15.03.2019 03:00:00 11,0 9,3 10,0 49 26 81 44 WSW 1011,2 - 0,0
15.03.2019 02:00:00 10,6 9,7 9,9 43 23 70 38 WSW 1011,8 - 0,0
15.03.2019 01:00:00 10,4 9,8 9,8 39 21 65 35 WSW 1012,1 - 0,0
15.03.2019 00:00:00 10,6 9,7 10,2 37 20 63 34 WSW 1012,2 - 0,0
14.03.2019 23:00:00 10,6 9,5 9,8 32 17 60 33 WSW 1012,1 - 0,0
14.03.2019 22:00:00 10,3 9,4 9,6 27 15 55 30 W 1012,1 6 0,0
14.03.2019 21:00:00 10,1 9,2 9,4 29 16 57 31 W 1011,8 - 0,0
14.03.2019 20:00:00 10,2 9,1 9,6 33 18 66 36 W 1011,0 - 0,0
14.03.2019 19:00:00 10,4 9,2 9,9 36 19 72 39 W 1009,7 6 0,0
14.03.2019 18:00:00 10,7 9,5 10,0 44 24 75 41 WSW 1008,5 - 0,0
14.03.2019 17:00:00 10,4 9,6 9,9 38 20 75 41 W 1007,8 - 0,2
14.03.2019 16:00:00 10,3 9,4 9,6 39 21 76 41 W 1007,7 - 0,2
14.03.2019 15:00:00 10,4 9,3 9,9 41 22 81 44 W 1007,0 - 0,0
14.03.2019 14:00:00 10,6 9,2 9,7 49 26 94 51 WSW 1006,7 - 0,0
14.03.2019 13:00:00 10,7 8,8 9,2 54 29 106 57 WSW 1006,8 6 0,0
14.03.2019 12:00:00 9,9 8,5 8,8 61 33 99 54 WSW 1006,8 - 0,2
14.03.2019 11:00:00 9,6 8,2 8,4 55 30 96 52 WSW 1007,1 - 0,6
14.03.2019 10:00:00 9,2 8,0 8,1 52 28 81 44 WSW 1007,9 6 1,0
14.03.2019 09:00:00 9,0 7,6 7,8 48 26 75 41 WSW 1008,8 - 1,7
14.03.2019 08:00:00 8,8 7,1 7,3 42 23 74 40 WSW 1009,7 - 1,6
14.03.2019 07:00:00 8,2 6,8 7,2 37 20 74 40 WSW 1011,0 6 2,2
14.03.2019 06:00:00 8,6 7,1 7,4 39 21 72 39 WSW 1012,2 - 0,6
14.03.2019 05:00:00 8,7 6,5 7,7 35 19 61 33 WSW 1013,2 - 0,2
14.03.2019 04:00:00 8,8 6,8 8,2 34 18 55 30 WSW 1014,3 8 0,0
14.03.2019 03:00:00 8,8 6,8 7,5 26 14 53 28 W 1015,5 - 0,0
14.03.2019 02:00:00 8,3 6,6 7,2 24 13 57 31 W 1016,2 - 0,4
14.03.2019 01:00:00 8,9 6,0 8,5 34 18 59 32 W 1016,6 - 0,0
14.03.2019 00:00:00 9,0 5,7 8,4 34 18 61 33 W 1016,6 - 0,0
13.03.2019 23:00:00 8,9 5,6 8,4 37 20 57 31 W 1016,4 - 0,0
13.03.2019 22:00:00 9,0 5,2 8,5 37 20 61 33 W 1016,5 8 0,0
13.03.2019 21:00:00 9,1 5,1 8,5 37 20 60 32 W 1016,2 - 0,0
13.03.2019 20:00:00 9,1 5,3 8,6 38 20 60 32 W 1015,8 - 0,0
13.03.2019 19:00:00 9,2 5,2 8,8 33 18 64 35 W 1015,3 - 0,0
13.03.2019 18:00:00 9,4 5,2 9,0 37 20 63 34 W 1014,6 - 0,0
13.03.2019 17:00:00 9,5 5,3 9,5 38 21 69 37 W 1013,8 - 0,0
13.03.2019 16:00:00 9,6 5,2 9,8 36 20 72 39 W 1013,2 10 0,0
13.03.2019 15:00:00 9,6 4,8 9,9 47 25 77 41 W 1012,7 - 0,0
13.03.2019 14:00:00 9,9 5,3 10,0 44 24 80 43 W 1012,5 - 0,0
13.03.2019 13:00:00 9,5 4,9 9,6 42 23 77 42 W 1012,5 10 0,0
13.03.2019 12:00:00 9,4 4,8 9,5 48 26 77 42 W 1011,3 - 0,0
13.03.2019 11:00:00 9,3 5,1 8,7 41 22 71 39 W 1010,8 - 0,0
13.03.2019 10:00:00 8,9 4,9 8,3 36 20 70 38 W 1010,7 12 0,0
13.03.2019 09:00:00 8,7 4,3 6,8 36 19 72 39 W 1010,1 - 0,0

tt = temperature
td = dewpoint
tt 5cm = temperature 5cm
ff = wind speed
fx = gusts
dd = wind direction
ppp = reduced air pressure
vv = visibility
rr = precipitation

Next stations